AV751 Weather Reports


time (UTC)temp
C
wind
direction
speed
KPH
gust
KPH
rain 1hr
cm
rain 24hr
cm
rain mn
cm
humidity
%
barometer
mb
20260506003004 8 10 1.6 6.4 0.00 0.00 0.00 69 996.1
20260506002504 8 24 0.0 8.0 0.00 0.00 0.00 69 996.0
20260506002004 8 22 3.2 8.0 0.00 0.00 0.00 69 996.2
20260506001504 8 39 3.2 6.4 0.00 0.00 0.00 69 996.2
20260506001004 8 72 3.2 6.4 0.00 0.00 0.00 69 996.1
20260506000504 8 44 1.6 4.8 0.00 0.00 0.00 69 996.0
20260506000004 8 351 3.2 6.4 0.00 0.00 0.00 69 996.0
20260505235504 8 333 3.2 6.4 0.00 0.00 0.00 69 995.9
20260505235004 8 34 1.6 6.4 0.00 0.00 0.00 69 996.2
20260505234504 8 34 1.6 3.2 0.00 0.00 0.00 69 995.9
20260505234004 8 24 1.6 4.8 0.00 0.00 0.00 68 996.1
20260505233504 8 12 3.2 4.8 0.00 0.00 0.00 68 996.1
20260505233004 8 6 3.2 4.8 0.00 0.00 0.00 68 996.1
20260505232504 8 35 1.6 6.4 0.00 0.00 0.00 68 996.1
20260505232214 8 55 3.2 6.4 0.00 0.00 0.00 68 996.2
20260505231504 8 30 3.2 6.4 0.00 0.00 0.00 69 996.3
20260505231004 9 11 3.2 3.2 0.00 0.00 0.00 69 996.1
20260505230504 9 37 1.6 4.8 0.00 0.00 0.00 68 996.3
20260505230005 9 44 1.6 4.8 0.00 0.00 0.00 68 996.3
20260505225504 9 41 3.2 4.8 0.00 0.00 0.00 68 996.2
20260505225004 9 67 3.2 6.4 0.00 0.00 0.00 68 996.2
20260505224504 9 66 3.2 6.4 0.00 0.00 0.00 68 995.8
20260505224218 9 47 4.8 9.7 0.00 0.00 0.00 68 996.1
20260505223716 9 28 1.6 9.7 0.00 0.00 0.00 68 996.2
20260505223004 9 52 3.2 8.0 0.00 0.00 0.00 70 996.1
20260505222717 9 43 6.4 8.0 0.00 0.00 0.00 70 996.0
20260505222004 9 17 3.2 8.0 0.00 0.00 0.00 70 996.1
20260505221504 9 36 3.2 8.0 0.00 0.00 0.00 70 996.0
20260505221004 9 40 3.2 9.7 0.00 0.00 0.00 70 996.1
20260505220504 9 41 4.8 11.3 0.00 0.00 0.00 70 996.1
20260505220004 9 27 8.0 11.3 0.00 0.00 0.00 70 996.0
20260505215504 10 38 6.4 12.9 0.00 0.00 0.00 70 996.0
20260505215004 10 34 4.8 12.9 0.00 0.00 0.00 70 996.2
20260505214504 10 23 4.8 8.0 0.00 0.00 0.00 70 996.0
20260505214004 10 33 3.2 8.0 0.00 0.00 0.00 70 996.1
20260505213504 10 25 4.8 9.7 0.00 0.00 0.00 70 995.9
20260505213215 10 38 3.2 9.7 0.00 0.00 0.00 70 996.0
20260505212504 10 41 3.2 6.4 0.00 0.00 0.00 70 996.0
20260505212004 10 38 4.8 6.4 0.00 0.00 0.00 70 996.1
20260505211504 10 33 3.2 6.4 0.00 0.00 0.00 70 995.9
20260505211004 10 28 3.2 8.0 0.00 0.00 0.00 69 996.0
20260505210504 10 12 6.4 8.0 0.00 0.00 0.00 69 996.0
20260505210004 10 39 4.8 9.7 0.00 0.00 0.00 69 995.8
20260505205504 10 62 1.6 9.7 0.00 0.00 0.00 68 996.1
20260505205213 10 49 3.2 6.4 0.00 0.00 0.00 68 996.0
20260505204716 10 34 3.2 4.8 0.00 0.00 0.00 67 995.8
20260505204004 10 67 1.6 12.9 0.00 0.00 0.00 66 995.8
20260505203504 10 67 8.0 12.9 0.00 0.00 0.00 66 995.7
20260505203004 10 57 4.8 9.7 0.00 0.00 0.00 66 995.8
20260505202504 10 50 3.2 6.4 0.00 0.00 0.00 67 995.7
20260505202216 10 62 4.8 6.4 0.00 0.00 0.00 67 995.8
20260505201504 10 50 4.8 12.9 0.00 0.00 0.00 67 995.6
20260505201004 11 41 3.2 12.9 0.00 0.00 0.00 68 995.5
20260505200504 11 35 3.2 12.9 0.00 0.00 0.00 69 995.6
20260505200004 11 36 4.8 12.9 0.00 0.00 0.00 70 995.4
20260505195504 11 42 3.2 12.9 0.00 0.00 0.00 70 995.6
20260505195004 11 43 6.4 12.9 0.00 0.00 0.00 70 995.3
20260505194504 11 52 6.4 9.7 0.00 0.00 0.00 71 995.4
20260505194004 11 61 4.8 14.5 0.00 0.00 0.00 71 995.2
20260505193504 11 66 6.4 14.5 0.00 0.00 0.00 71 995.2
20260505193004 11 56 6.4 14.5 0.00 0.00 0.00 71 995.3
20260505192504 11 29 3.2 12.9 0.00 0.00 0.00 71 995.2
20260505192004 11 21 4.8 12.9 0.00 0.00 0.00 71 994.9
20260505191504 11 49 4.8 9.7 0.00 0.00 0.00 71 995.0
20260505191004 11 74 6.4 11.3 0.00 0.00 0.00 71 994.9
20260505190504 11 39 6.4 11.3 0.00 0.00 0.00 71 994.9
20260505190005 11 29 6.4 9.7 0.00 0.00 0.00 71 994.8
20260505185717 11 40 4.8 9.7 0.00 0.00 0.00 71 994.8
20260505185004 12 57 6.4 8.0 0.00 0.00 0.00 70 994.6
20260505184718 12 52 4.8 8.0 0.00 0.00 0.00 70 994.5
20260505184004 12 31 3.2 6.4 0.00 0.00 0.00 70 994.5
20260505183504 12 33 4.8 6.4 0.00 0.00 0.00 70 994.5
20260505183004 12 14 3.2 4.8 0.00 0.00 0.00 70 994.5
20260505182504 12 15 3.2 8.0 0.00 0.00 0.00 70 994.5
20260505182004 12 20 3.2 12.9 0.00 0.00 0.00 70 994.4
20260505181715 12 22 3.2 12.9 0.00 0.00 0.00 70 994.3
20260505181213 12 63 3.2 9.7 0.00 0.00 0.00 65 994.3
20260505180504 12 53 6.4 9.7 0.00 0.00 0.00 65 994.4
20260505180214 12 31 6.4 9.7 0.00 0.00 0.00 64 994.4
20260505175504 12 42 6.4 12.9 0.00 0.00 0.00 64 994.3
20260505175004 13 58 6.4 11.3 0.00 0.00 0.00 63 994.0
20260505174504 13 36 3.2 9.7 0.00 0.00 0.00 60 994.0
20260505174004 13 8 4.8 6.4 0.00 0.00 0.00 52 993.8
20260505173504 14 357 1.6 3.2 0.00 0.00 0.00 50 993.8
20260505173004 14 342 1.6 3.2 0.00 0.00 0.00 51 993.8
20260505172715 14 344 1.6 3.2 0.00 0.00 0.00 51 993.8
20260505172004 14 351 3.2 3.2 0.00 0.00 0.00 51 993.7
20260505171504 14 328 1.6 4.8 0.00 0.00 0.00 51 993.7
20260505171004 15 334 3.2 4.8 0.00 0.00 0.00 50 993.7
20260505170504 15 341 3.2 4.8 0.00 0.00 0.00 50 993.9
20260505170004 15 342 3.2 4.8 0.00 0.00 0.00 50 993.6
20260505165504 15 306 1.6 6.4 0.00 0.00 0.00 50 993.6
20260505165004 15 299 3.2 6.4 0.00 0.00 0.00 50 993.7
20260505164504 15 5 3.2 3.2 0.00 0.00 0.00 51 993.6
20260505164004 15 60 1.6 3.2 0.00 0.00 0.00 51 993.9
20260505163504 15 67 1.6 3.2 0.00 0.00 0.00 51 993.8
20260505163004 15 42 3.2 4.8 0.00 0.00 0.00 52 993.8
20260505162504 15 19 3.2 4.8 0.00 0.00 0.00 51 993.9
20260505162004 15 4 3.2 4.8 0.00 0.00 0.00 51 993.7
20260505161504 15 3 3.2 4.8 0.00 0.00 0.00 50 993.8
20260505161004 15 332 3.2 4.8 0.00 0.00 0.00 50 993.9
20260505160504 15 297 1.6 4.8 0.00 0.00 0.00 50 993.7
20260505153004 15 290 1.6 3.2 0.00 0.00 0.00 50 993.7
20260505152716 15 304 0.0 3.2 0.00 0.00 0.00 50 993.7
20260505152214 15 327 3.2 3.2 0.00 0.00 0.00 50 993.7
20260505151504 15 14 0.0 4.8 0.00 0.00 0.00 48 993.5
20260505151004 15 82 1.6 3.2 0.00 0.00 0.00 49 993.6
20260505150504 16 93 0.0 3.2 0.00 0.00 0.00 50 993.7
20260505140504 16 164 0.0 4.8 0.00 0.00 0.00 47 993.7
20260505125004 15 348 1.6 6.4 0.00 0.00 0.00 51 993.8
20260505124504 15 321 3.2 4.8 0.00 0.00 0.00 50 993.6
20260505124004 15 290 1.6 4.8 0.00 0.00 0.00 51 993.6
20260505123504 15 347 1.6 4.8 0.00 0.00 0.00 51 993.6
20260505123004 15 13 3.2 6.4 0.00 0.00 0.00 50 993.7
20260505122504 16 10 1.6 6.4 0.00 0.00 0.00 48 993.6
20260505122004 16 29 3.2 6.4 0.00 0.00 0.00 47 993.8
20260505121504 16 39 3.2 6.4 0.00 0.00 0.00 49 993.6
20260505121004 16 23 4.8 6.4 0.00 0.00 0.00 50 993.4
20260505120715 16 8 1.6 3.2 0.00 0.00 0.00 50 993.8
20260505120005 16 123 0.0 3.2 0.00 0.00 0.00 50 993.8
20260505115504 16 348 0.0 3.2 0.00 0.00 0.00 51 993.6
20260505115004 16 346 3.2 3.2 0.00 0.00 0.00 51 993.9
20260505114504 16 346 1.6 3.2 0.00 0.00 0.00 51 993.9
20260505114004 16 358 1.6 4.8 0.00 0.00 0.00 51 993.8
20260505113504 15 43 1.6 6.4 0.00 0.00 0.00 51 993.8
20260505113004 15 36 1.6 6.4 0.00 0.00 0.00 50 993.7
20260505112504 15 352 3.2 4.8 0.00 0.00 0.00 50 993.8
20260505112004 15 351 1.6 4.8 0.00 0.00 0.00 50 994.1
20260505111504 15 352 1.6 3.2 0.00 0.00 0.00 51 994.0
20260505111004 15 336 0.0 3.2 0.00 0.00 0.00 51 994.0
20260505110504 15 310 1.6 3.2 0.00 0.00 0.00 52 994.0
20260505102004 14 9 1.6 4.8 0.00 0.00 0.00 53 994.3
20260505101504 14 135 1.6 3.2 0.00 0.00 0.00 55 994.3
20260505101004 15 54 0.0 3.2 0.00 0.00 0.00 56 994.2
20260505100504 15 4 1.6 3.2 0.00 0.00 0.00 55 994.4
20260505100004 14 1 1.6 4.8 0.00 0.00 0.00 54 994.3
20260505095504 14 358 1.6 4.8 0.00 0.00 0.00 54 994.3
20260505095004 14 354 3.2 6.4 0.00 0.00 0.00 52 994.5
20260505094504 14 337 1.6 6.4 0.00 0.00 0.00 52 994.2
20260505094004 15 342 3.2 8.0 0.00 0.00 0.00 52 994.4
20260505093504 15 3 3.2 8.0 0.00 0.00 0.00 53 994.5
20260505093004 15 7 3.2 6.4 0.00 0.00 0.00 54 994.6
20260505092504 15 358 4.8 8.0 0.00 0.00 0.00 54 994.6
20260505092004 14 10 3.2 8.0 0.00 0.00 0.00 55 994.6
20260505091504 14 35 3.2 9.7 0.00 0.00 0.00 55 994.6
20260505091004 14 34 1.6 9.7 0.00 0.00 0.00 56 994.6
20260505090504 13 9 1.6 8.0 0.00 0.00 0.00 56 994.6
20260505090004 13 4 4.8 6.4 0.00 0.00 0.00 57 994.7
20260505085504 13 354 4.8 6.4 0.00 0.00 0.00 58 994.5
20260505085004 13 357 3.2 6.4 0.00 0.00 0.00 59 994.6
20260505084504 13 344 3.2 4.8 0.00 0.00 0.00 60 994.6
20260505084217 13 340 3.2 4.8 0.00 0.00 0.00 61 994.7
20260505083504 13 13 1.6 4.8 0.00 0.00 0.00 63 994.8
20260505083004 13 24 3.2 6.4 0.00 0.00 0.00 64 994.7
20260505082504 12 27 3.2 6.4 0.00 0.00 0.00 66 994.8
20260505082214 12 33 3.2 6.4 0.00 0.00 0.00 67 994.9
20260505081504 12 313 3.2 3.2 0.00 0.00 0.00 71 994.9
20260505081215 12 233 0.0 3.2 0.00 0.00 0.00 75 994.9
20260505080504 12 199 1.6 3.2 0.00 0.00 0.00 79 995.0
20260505080004 12 211 0.0 3.2 0.00 0.00 0.00 82 995.0
20260505075504 11 216 1.6 3.2 0.00 0.00 0.00 87 995.1
20260505075004 11 171 1.6 3.2 0.00 0.00 0.00 90 995.1
20260505074504 11 169 0.0 3.2 0.00 0.00 0.00 93 995.1
20260505074004 10 161 1.6 3.2 0.00 0.00 0.00 95 995.1
20260505073504 10 191 0.0 3.2 0.00 0.00 0.00 96 995.2
20260505073004 10 222 1.6 3.2 0.00 0.00 0.00 97 995.2
20260505072504 9 200 0.0 3.2 0.00 0.00 0.00 98 995.3
20260505072004 8 159 0.0 3.2 0.00 0.00 0.00 98 995.2
20260505071504 8 147 1.6 3.2 0.00 0.00 0.00 98 995.6
20260505071004 8 252 1.6 1.6 0.00 0.00 0.00 98 995.6
20260505070504 8 315 0.0 1.6 0.00 0.00 0.00 98 995.4
20260505070005 8 291 0.0 1.6 0.00 0.00 0.00 98 995.6
20260505065714 8 239 0.0 3.2 0.00 0.00 0.00 98 995.4
20260505065217 7 217 0.0 3.2 0.00 0.00 0.00 98 995.6
20260505064504 7 219 0.0 3.2 0.00 0.00 0.00 98 995.7
20260505064004 7 152 1.6 3.2 0.00 0.00 0.00 98 995.5
20260505063504 7 131 0.0 3.2 0.00 0.00 0.00 97 995.7
20260505063004 7 243 0.0 1.6 0.00 0.00 0.00 97 995.6
20260505062504 7 142 0.0 3.2 0.00 0.00 0.00 99 995.7
20260505062004 7 155 0.0 3.2 0.00 0.00 0.00 99 995.7
20260505061504 7 180 0.0 1.6 0.00 0.00 0.00 99 995.9
20260505061216 7 180 0.0 1.6 0.00 0.00 0.00 99 996.0
20260505060714 7 270 0.0 1.6 0.00 0.00 0.00 99 995.8
20260505060004 6 270 0.0 1.6 0.00 0.00 0.00 99 995.7
20260505055504 6 194 0.0 3.2 0.00 0.00 0.00 99 995.8
20260505055004 6 162 0.0 3.2 0.00 0.00 0.00 99 995.8
20260505054504 6 135 0.0 3.2 0.00 0.00 0.00 99 995.9
20260505054004 6 0 0.0 0.0 0.00 0.00 0.00 99 995.6
20260505053717 6 0 0.0 0.0 0.00 0.00 0.00 99 995.8
20260505053004 6 0 0.0 0.0 0.00 0.00 0.00 99 995.8
20260505052718 6 0 0.0 0.0 0.00 0.00 0.00 99 995.6
20260505052004 6 0 0.0 0.0 0.00 0.00 0.00 99 995.9
20260505051504 6 0 0.0 0.0 0.00 0.00 0.00 99 995.6
20260505051216 6 0 0.0 0.0 0.00 0.00 0.00 99 995.7
20260505050504 6 0 0.0 0.0 0.00 0.00 0.00 99 995.6
20260505041504 6 0 0.0 0.0 0.00 0.00 0.00 99 995.4
20260505041004 6 0 0.0 0.0 0.00 0.00 0.00 99 995.5
20260505040504 6 0 0.0 0.0 0.00 0.00 0.00 99 995.5
20260505040005 6 0 0.0 0.0 0.00 0.00 0.00 99 995.3
20260505035504 6 0 0.0 0.0 0.00 0.00 0.00 99 995.3
20260505035004 6 0 0.0 0.0 0.00 0.00 0.00 99 995.4
20260505034504 6 0 0.0 0.0 0.00 0.00 0.00 99 995.5
20260505034004 6 0 0.0 0.0 0.00 0.00 0.00 99 995.5
20260505033504 6 0 0.0 0.0 0.00 0.00 0.00 99 995.3
20260505033004 6 0 0.0 0.0 0.00 0.00 0.00 99 995.3
20260505032504 7 0 0.0 0.0 0.00 0.00 0.00 99 995.3
20260505032004 7 0 0.0 0.0 0.00 0.00 0.00 99 995.4
20260505031504 7 0 0.0 0.0 0.00 0.00 0.00 99 995.3
20260505031004 7 0 0.0 0.0 0.00 0.00 0.00 99 995.4
20260505030504 7 0 0.0 0.0 0.00 0.00 0.00 95 995.4
20260505030004 7 0 0.0 0.0 0.00 0.00 0.00 95 995.2
20260505025504 7 0 0.0 0.0 0.00 0.00 0.00 95 995.2
20260505025215 7 0 0.0 0.0 0.00 0.00 0.00 95 995.3
20260505024504 7 0 0.0 0.0 0.00 0.00 0.00 95 995.2
20260505024004 7 0 0.0 0.0 0.00 0.00 0.00 95 995.3
20260505023504 7 0 0.0 0.0 0.00 0.00 0.00 95 995.4
20260505023004 7 0 0.0 0.0 0.00 0.00 0.00 96 995.2
20260505022504 8 0 0.0 0.0 0.00 0.00 0.00 96 995.1
20260505022004 8 0 0.0 0.0 0.00 0.00 0.00 96 995.2
20260505021504 8 0 0.0 0.0 0.00 0.00 0.00 96 995.3
20260505021004 8 0 0.0 0.0 0.00 0.00 0.00 96 995.3
20260505020504 8 0 0.0 0.0 0.00 0.00 0.00 96 995.4
20260505020004 8 0 0.0 0.0 0.00 0.00 0.00 96 995.3
20260505015717 8 0 0.0 0.0 0.00 0.00 0.00 96 995.2
20260505015004 8 0 0.0 0.0 0.00 0.00 0.00 97 995.3
20260505014504 9 0 0.0 0.0 0.00 0.00 0.00 97 995.4
20260505014004 9 0 0.0 0.0 0.00 0.00 0.00 97 995.5
20260505013504 9 0 0.0 0.0 0.00 0.00 0.00 97 995.5
20260505013217 9 0 0.0 0.0 0.00 0.00 0.00 97 995.5
20260505012504 9 135 0.0 1.6 0.00 0.00 0.00 97 995.5
20260505012004 9 135 0.0 1.6 0.00 0.00 0.00 97 995.7
20260505011504 9 135 0.0 1.6 0.00 0.00 0.00 97 995.7
20260505011004 9 135 0.0 1.6 0.00 0.00 0.00 97 995.7
20260505010504 9 135 0.0 1.6 0.00 0.00 0.00 96 995.7
20260505010005 9 135 0.0 1.6 0.00 0.00 0.00 96 995.7
20260505005504 9 0 0.0 0.0 0.00 0.00 0.00 96 995.5
20260505005005 9 0 0.0 0.0 0.00 0.00 0.00 96 995.7
20260505004504 9 0 0.0 0.0 0.00 0.00 0.00 96 995.7
20260505004217 9 0 0.0 0.0 0.00 0.00 0.00 96 995.6
20260505003504 9 0 0.0 0.0 0.00 0.00 0.00 96 995.9